カタログに戻る

STARLINK-38184

運用中通信SSO
NORAD 100180·PAYLOAD·🇺🇸 United States

打ち上げ Aug 1, 2026 から Vandenberg Space Force Base

Loading…

次のパス (今後24時間)

TLE

最新Source: Space-Track

元期: Sep 14, 2026, 03:10 UTC

1 A0180U 26175B   26257.13209352  .00194287  00000-0  12742-2 0  9996
2 A0180  97.2829  99.2501 0002099  79.2173 280.9328 15.75187051  8171

AllMySatでSTARLINK-38184をリアルタイム追跡

Download on the App Store